Regional Weather Roundup
Issued by NWS

Home | Current Version | Previous Version | Graphics & Text | Print | Product List | Glossary On
Versions: 1 2 3 4 5 6 7 8 9 10 11 12 13 14 15 16 17 18 19 20 21 22 23 24 25 26 27 28 29 30 31 32 33 34 35 36 37 38 39 40 41 42 43 44 45 46 47 48 49 50
000
ASUS43 KOAX 221110
RWRNE

WEATHER ROUNDUP FOR NEBRASKA
NATIONAL WEATHER SERVICE OMAHA NE
600 AM CDT TUE AUG 22 2017

NOTES: SATELLITE DATA IS BEING USED TO AUGMENT CLOUD COVER ABOVE
       12000 FEET.
       "FAIR" INDICATES FEW OR NO CLOUDS BELOW 12,000 FEET WITH NO
       SIGNIFICANT WEATHER AND/OR OBSTRUCTIONS TO VISIBILITY.


NEZ001>004-019>022-054>056-221200-
NEBRASKA PANHANDLE

CITY           SKY/WX    TMP DP  RH WIND       PRES   REMARKS
SCOTTSBLUFF    CLEAR     51  46  83 NE6       30.27S
ALLIANCE       CLEAR     43  41  93 W7        30.27R
CHADRON        CLEAR     47  42  83 SW3       30.24R
GORDON         FAIR      44  40  89 CALM      30.24S
KIMBALL        PTCLDY    52  48  86 SE5       30.31S
SIDNEY         CLEAR     47  45  93 SW3       30.30R
$$

NEZ057>060-069>072-079>082-221200-
SOUTHWEST NEBRASKA

CITY           SKY/WX    TMP DP  RH WIND       PRES   REMARKS
NORTH PLATTE   CLEAR     54  52  93 CALM      30.22R
IMPERIAL       CLEAR     57  55  93 N8        30.23R
LEXINGTON      CLEAR     61  56  83 N9        30.18R
MCCOOK         CLEAR     62  61  96 N12       30.18R
OGALLALA       CLEAR     54  52  92 CALM      30.25R
$$

NEZ005>010-023>029-035>040-094-221200-
NORTH CENTRAL NEBRASKA

CITY           SKY/WX    TMP DP  RH WIND       PRES   REMARKS
VALENTINE      CLEAR     49  45  86 W7        30.22R
AINSWORTH      CLEAR     52  49  91 NW6       30.21R
BROKEN BOW     CLEAR     55  52  89 N8        30.18S
O`NEILL        CLEAR     53  52  95 NW6       30.18R
ORD            CLEAR     56  51  84 NW5       30.16R
THEDFORD       CLEAR     51  48  90 CALM      30.23R
$$

NEZ041-046>049-061>064-073>077-083>087-221200-
SOUTH CENTRAL NEBRASKA

CITY           SKY/WX    TMP DP  RH WIND       PRES   REMARKS
GRAND ISLAND   CLEAR     62  61  96 N8        30.14R
AURORA         CLEAR     62  62 100 N10       30.13R
HASTINGS       CLEAR     63  61  93 N9        30.14R
HEBRON         CLOUDY    65  64  96 NE3       30.11R
HOLDREGE       CLEAR     62  60  93 N10       30.15R
KEARNEY        CLEAR     62  59  90 N14       30.15R
YORK           CLEAR     63  63 100 N12       30.12R
$$

NEZ011>018-030>034-042>045-221200-
NORTHEAST NEBRASKA

CITY           SKY/WX    TMP DP  RH WIND       PRES   REMARKS
NORFOLK        CLEAR     58  56  93 NW6       30.12R
ALBION         CLEAR     59  55  88 N3        30.15R
BLAIR          HVY RAIN  62  61  97 NW3       30.08R
COLUMBUS       CLEAR     61  58  90 N8        30.12R
FREMONT        CLEAR     62  61  98 CALM      30.10R
TEKAMAH        CLEAR     61  59  93 NW7       30.08R
WAYNE          CLEAR     58  55  91 N6        30.12R
$$

NEZ050>053-065>068-078-088>093-221200-
SOUTHEAST NEBRASKA

CITY           SKY/WX    TMP DP  RH WIND       PRES   REMARKS
LINCOLN        PTCLDY    62  61  96 NW3       30.10R
OMAHA EPPLEY   CLOUDY    65  62  90 NW5       30.07R
BEATRICE       CLOUDY    66  65  97 NE5       30.10R
FALLS CITY     MOCLDY    65  64  97 N6        30.06R
NEBRASKA CITY  CLOUDY    64  64 100 N6        30.08R FOG
PLATTSMOUTH    FOG       64  64  97 NW5       30.08R VSB 1/4
$$

NEZ044-045-051>053-067-221200-
OMAHA AREA

CITY           SKY/WX    TMP DP  RH WIND       PRES   REMARKS
OMAHA EPPLEY   CLOUDY    65  62  90 NW5       30.07R
BLAIR          HVY RAIN  62  61  97 NW3       30.08R
FREMONT        CLEAR     62  61  98 CALM      30.10R
MILLARD        PTCLDY    65  64  97 NW3       30.08R FOG
OFFUTT AFB     CLOUDY    65  64  97 W5        30.07R
PLATTSMOUTH    FOG       64  64  97 NW5       30.08R VSB 1/4
WAHOO          FAIR      62  61  97 N6        30.09R
$$




USA.gov is the U.S. government's official web portal to all federal, state and local government web resources and services.